{"data":{"norad_id":27954,"intl_designator":"2003-044A","name":"GALAXY 13 (HORIZONS-1)","alt_names":[],"object_type":"PAYLOAD","status":"ACTIVE","operator":null,"country":"US","launch_date":"2003-10-01","launch_site_code":"SEAL","launch_vehicle":null,"mission":null,"orbit_class":"UNKNOWN","rcs_meters":25.4101,"size_class":null,"mass_kg":null,"dimensions":null,"purposes":["comms"],"wikipedia_slug":null,"has_3d_model":false,"image_url":null,"decayed_at":null,"tle_current":{"epoch":"2026-05-25T04:06:38.661120Z","epoch_age_seconds":63839,"freshness":"FRESH","line1":"1 27954U 03044A   26145.17128080  .00000131  00000+0  00000+0 0  9996","line2":"2 27954   1.3603  84.1301 0002158 337.6265  92.6703  1.00272939 46344","mean_motion":1.00272939,"eccentricity":0.0002158,"inclination_deg":1.3603,"raan_deg":84.1301,"arg_perigee_deg":337.6265,"mean_anomaly_deg":92.6703,"bstar":0,"rev_number":4634,"period_min":1436.080376581,"perigee_km":35777.172376857,"apogee_km":35795.370535547,"semimajor_km":42164.408456202,"source":"CELESTRAK","updated_at":"2026-05-25T13:38:14.323758Z"}}}